Location: Bishop�s Knoyle
(51.0728°N, 2.1714°W)
Time: 17:28:02
(UTC+00:00)

Cosmos 1766 - Pass Details

Date: 18 September 2020
Orbit: 521 x 544 km, 82.5° (Epoch: 30 October)

Event Time Altitude Azimuth Distance (km) Brightness Sun altitude
Exits shadow 21:09:37 51° 311° (NW) 680 4.0 -26.0°
Drops below altitude 10° 21:13:05 10° 3° (N) 1,806 6.4 -26.4°
Sets 21:15:18 0° 8° (N) 2,706 7.3 -26.7°
